Home > Weather > Tbilisi > Past weeks

Flag for Georgia Weather for the Past 2 Weeks in Tbilisi, Georgia

Now
70 °F

Mild.


Feels Like: 70 °F
Forecast: 55 / 72 °F
Wind: 8 mph from East

Location: Gyanca Airport

Current Time: May 4, 2016 at 2:17:56 PM

Latest Report: May 4, 2016 at 1:30 PM


Visibility: N/A

Pressure: 29.71 "Hg

Humidity: 53%

Dew Point: 52 °F

Location of TbilisiLocation

Historic Weather in Tbilisi — Graph

°F

Tbilisi Temperature Yesterday

Maximum temperature yesterday: 66 °F (at 5:00 PM)
Minimum temperature yesterday: 52 °F (at 3:30 AM)
Average temperature yesterday: 59 °F

High & Low Weather Summary for the Past Weeks

 TemperatureHumidityPressure
High86 °F (Apr 26, 4:00 PM)100% (Apr 23, 9:00 AM)30.30 "Hg (Apr 23, 9:00 AM)
Low45 °F (Apr 23, 12:30 AM)20% (Apr 22, 6:00 PM)29.65 "Hg (Apr 25, 3:30 PM)
Average62 °F63%29.95 "Hg
* Reported Apr 19 2:00 PM — May 4 1:00 PM, Tbilisi, Weather by CustomWeather, © 2016

Note: Actual official high and low records may vary slightly from our data, if they occured in-between our weather recording intervals... More about our weather records

Advertising

Tbilisi Weather History for the Previous 24 Hours

Scroll right to see more
 ConditionsComfort  
Time TempWeatherWind HumidityBarometerVisibility
1:00 PM
Wed, May 4
70 °FPartly sunny.13 mph53%29.71 "HgN/A
12:00 PM66 °FPartly sunny.8 mph56%29.74 "HgN/A
11:30 AM64 °FPartly sunny.8 mph64%29.74 "HgN/A
11:00 AM66 °FPartly sunny.7 mph60%29.77 "HgN/A
10:00 AM63 °FPartly sunny.6 mph73%29.77 "HgN/A
9:00 AM61 °FPartly sunny.5 mph72%29.77 "HgN/A
8:30 AM61 °FPartly sunny.No wind72%29.80 "HgN/A
8:00 AM59 °FPartly sunny.No wind72%29.77 "HgN/A
7:30 AM57 °FScattered clouds.No wind77%29.80 "HgN/A
7:00 AM55 °FScattered clouds.3 mph82%29.80 "HgN/A
6:30 AM55 °FPassing clouds.3 mph82%29.80 "HgN/A
6:00 AM54 °FPassing clouds.2 mph88%29.80 "HgN/A
5:30 AM54 °FPassing clouds.2 mph88%29.80 "HgN/A
5:00 AM54 °FPassing clouds.2 mph88%29.80 "HgN/A
4:30 AM54 °FPassing clouds.2 mph88%29.80 "HgN/A
4:00 AM54 °FPassing clouds.2 mph88%29.80 "HgN/A
3:30 AM54 °FPassing clouds.2 mph88%29.80 "HgN/A
3:00 AM55 °FPassing clouds.5 mph82%29.83 "HgN/A
2:30 AM55 °FPassing clouds.3 mph82%29.83 "HgN/A
2:00 AM57 °FPassing clouds.5 mph77%29.83 "HgN/A
1:30 AM59 °FPassing clouds.5 mph72%29.83 "HgN/A
1:00 AM59 °FPassing clouds.3 mph72%29.86 "HgN/A
12:30 AM59 °FPassing clouds.7 mph72%29.86 "HgN/A
12:00 AM57 °FPassing clouds.6 mph77%29.86 "HgN/A
11:30 PM
Tue, May 3
57 °FPassing clouds.8 mph77%29.86 "HgN/A
11:00 PM59 °FPassing clouds.8 mph72%29.89 "HgN/A
10:30 PM59 °FPassing clouds.8 mph72%29.89 "HgN/A
10:00 PM59 °FPassing clouds.7 mph72%29.89 "HgN/A
9:30 PM61 °FPassing clouds.7 mph68%29.89 "HgN/A
9:00 PM61 °FPassing clouds.5 mph68%29.89 "HgN/A
8:30 PM61 °FPartly sunny.No wind68%29.89 "HgN/A
8:00 PM63 °FScattered clouds.No wind64%29.89 "HgN/A
7:30 PM64 °FScattered clouds.No wind60%29.89 "HgN/A
7:00 PM64 °FScattered clouds.No wind60%29.89 "HgN/A
6:30 PM64 °FScattered clouds.3 mph56%29.89 "HgN/A
6:00 PM64 °FPartly sunny.5 mph56%29.89 "HgN/A
5:30 PM64 °FOvercast.3 mph56%29.92 "HgN/A
5:00 PM66 °FOvercast.3 mph56%29.92 "HgN/A
4:30 PM64 °FOvercast.7 mph60%29.92 "HgN/A
3:30 PM64 °FOvercast.6 mph56%29.95 "HgN/A
3:00 PM63 °FOvercast.7 mph59%29.95 "HgN/A
2:30 PM63 °FOvercast.8 mph64%29.98 "HgN/A
2:00 PM63 °FOvercast.7 mph64%29.98 "HgN/A
Weather by CustomWeather, © 2016

See weather overviewHow to use our weather pages